English version Home page |
Updated on November 20, 2022 |
プロフィール
|
軌道要素The following orbital elements are taken from MPC 59044: Epoch 2007 Jan. 20.0 TT = JDT 2454120.5 T 2007 Jan. 17.8912 TT MPC q 2.796364 (2000.0) P Q n 0.0618235 Peri. 186.9823 -0.6051052 -0.6984252 a 6.334323 Node 301.0453 +0.7503221 -0.3397787 e 0.558538 Incl. 26.4911 +0.2662037 -0.6298831 P 15.9 From 87 observations 2006 Nov. 24-2007 Feb. 17, mean residual 0".6.
|
光度変化m1 = 9.0 + 5 logΔ + 20.0 log r
|
軌道要素はMPCのEphemerides and Orbital Elementsに掲載されたものです。
|